Regional Weather Roundup
Issued by NWS Cleveland, OH

Home | Current Version | Previous Version | Text Only | Print | Product List | Glossary Off
Versions: 1 2 3 4 5 6 7 8 9 10 11 12 13 14 15 16 17 18 19 20 21 22 23 24 25 26 27 28 29 30 31 32 33 34 35 36 37 38 39 40 41 42 43 44 45 46 47 48 49 50

000
ASUS41 KCLE 291000
RWRCLE
OHIO REGIONAL WEATHER ROUNDUP
NATIONAL WEATHER SERVICE WILMINGTON, OH
600 AM EDT SUN MAR 29 2015

NOTE: "FAIR" INDICATES FEW OR NO CLOUDS BELOW 12,000 FEET WITH NO
SIGNIFICANT WEATHER AND/OR OBSTRUCTIONS TO VISIBILITY.

OHZ001>008-015>018-024>027-034-035-043-044-291100-
   NORTHWEST OHIO

CITY           SKY/WX    TMP DP  RH WIND       PRES   REMARKS
DEFIANCE       CLEAR     24  16  71 S7        30.28F WCI  16
FINDLAY        CLEAR     21  15  78 S8        30.29S WCI  11
TOLEDO EXPRESS CLEAR     23  14  68 SW6       30.28F WCI  16
TOLEDO EXEC    CLEAR     22  14  71 SW7       30.30S WCI  13
LIMA           CLEAR     24  14  65 S8        30.29S WCI  15
$$

OHZ009>014-019>023-028>033-038-089-291100-
   NORTHEAST OHIO

CITY           SKY/WX    TMP DP  RH WIND       PRES   REMARKS
CLE-HOPKINS    CLEAR     20  12  71 SW6       30.33R WCI  12
CLE-LAKEFRONT  CLEAR     23  13  65 S7        30.31R WCI  15
CUY CO. ARPT   NOT AVBL
LORAIN-ELYRIA  CLEAR     20  14  77 SW6       30.31R WCI  12
ASHTABULA      CLEAR     18  11  74 S3        30.30R
AKRON-CANTON   CLEAR     17   9  70 SW6       30.30R WCI   9
WOOSTER        NOT AVBL
MANSFIELD      CLEAR     18  11  74 SW7       30.29R WCI   9
YOUNGSTOWN     CLEAR     15   9  76 S5        30.29R WCI   8
$$

OHZ042-051>053-060>062-070>072-077>081-291100-
  SOUTHWEST OHIO

CITY           SKY/WX    TMP DP  RH WIND       PRES   REMARKS
CINC-COVINGTON CLEAR     22  13  68 S6        30.33S WCI  14
CINC-LUNKEN    CLEAR     20  18  92 CALM      30.38S
HAMILTON       CLEAR     20  15  81 E5        30.36S WCI  13
DAYTON         NOT AVBL
WRIGHT-PAT AFB NOT AVBL
DAYTON GENERAL CLEAR     21  13  71 S6        30.32S WCI  13
WILMINGTON     CLEAR     22  12  65 S7        30.33R WCI  13
$$

OHZ036-037-039>041-045>050-054>059-063>069-073>076-082>088-291100-
  CENTRAL AND SOUTHEAST OHIO

CITY           SKY/WX    TMP DP  RH WIND       PRES   REMARKS
COLUMBUS       CLEAR     18  14  84 CALM      30.34S
OSU AIRPORT    CLEAR     21  12  68 S5        30.33S WCI  15
BOLTON FIELD   NOT AVBL
RICKENBACK AFB NOT AVBL
NEWARK         CLEAR     16  12  84 CALM      30.33S
MARION         CLEAR     18  11  74 S6        30.31S WCI  10
LANCASTER      CLEAR     17  12  80 CALM      30.34F
ZANESVILLE     CLEAR     14  10  84 CALM      30.34R
NEW PHILLY     CLEAR     16  11  80 SE5       30.34R WCI   9
$$


USA.gov is the U.S. government's official web portal to all federal, state and local government web resources and services.